Weather History for Ulaan-Baator, Mongolia

Change the Weather History Date:

Sunday, December 30, 2012

  Actual Average Record
Temperature  
Mean Temperature -12 °F -  
Max Temperature 0 °F 4 °F - ()
Min Temperature -23 °F -16 °F - ()
Degree Days  
Heating Degree Days 76    
Moisture  
Dew Point -24 °F    
Average Humidity 70    
Maximum Humidity 84    
Minimum Humidity 45    
Precipitation  
Precipitation 0.14 in 0.00 in - ()
Sea Level Pressure  
Sea Level Pressure 30.07 in    
Wind  
Wind Speed 2 mph ()    
Max Wind Speed 7 mph    
Max Gust Speed -    
Visibility 2.5 miles    
Events Snow    
T = Trace of Precipitation, MM = Missing Value Source: Averaged Metar Reports

Daily Weather History Graph

Daily Weather History Graph

Search for Another Location

Airport:

Trip Planner

Search our weather history database for the weather conditions in past years. The results will help you decide how hot, cold, wet, or windy it might be!

Date:

Astronomy

Dec. 30, 2012 Rise Set
Actual Time 8:42 AM ULAT 5:08 PM ULAT
Civil Twilight 8:05 AM ULAT 5:44 PM ULAT
Nautical Twilight 7:26 AM ULAT 6:24 PM ULAT
Astronomical Twilight 6:48 AM ULAT 7:01 PM ULAT
Moon 7:17 PM ULAT 9:23 AM ULAT
Length of Visible Light 9h 38m
Length of Day
8h 26m
Full, 97% of the Moon is Illuminated
Dec 30
Full
Jan 5
Last Quarter
Jan 12
New
Jan 19
First Quarter
Jan 27
Full

Hourly Weather History & Observations

Time (ULAT) Temp. Windchill Dew Point Humidity Pressure Visibility Wind Dir Wind Speed Gust Speed Precip Events Conditions
12:00 AM -20.2 °F - -25.6 °F 76% 30.15 in - Variable 2.2 mph - N/A   Clear
1:00 AM -23.8 °F - -29.2 °F 76% 30.12 in - Calm Calm - N/A   Clear
2:00 AM -16 °F - -23 °F 55% 30.81 in - Calm Calm - - Snow Snow
2:00 AM -23.8 °F - -31.0 °F 69% 30.12 in 3.7 mi Variable 2.2 mph - N/A   Unknown
3:00 AM -27.4 °F - -34.6 °F 69% 30.12 in 3.7 mi Variable 2.2 mph - N/A   Unknown
4:00 AM -25.6 °F - -32.8 °F 69% 30.09 in 3.7 mi Variable 2.2 mph - N/A   Unknown
5:00 AM -16 °F - -24 °F 53% 30.77 in - Calm Calm - - Snow Snow
5:00 AM -29.2 °F - -36.4 °F 68% 30.06 in 3.1 mi Variable 2.2 mph - N/A   Smoke
5:30 AM -31.0 °F - -38.2 °F 68% 30.06 in 3.1 mi Variable 2.2 mph - N/A   Smoke
6:00 AM -25.6 °F - -32.8 °F 69% 30.06 in 3.1 mi Calm Calm - N/A   Smoke
6:30 AM -23.8 °F - -31.0 °F 69% 30.06 in 3.1 mi Variable 2.2 mph - N/A   Smoke
7:00 AM -20.2 °F - -25.6 °F 76% 30.04 in 3.1 mi Variable 2.2 mph - N/A   Smoke
7:30 AM -23.8 °F - -31.0 °F 69% 30.04 in 3.1 mi Variable 2.2 mph - N/A   Smoke
8:00 AM -15 °F - -22 °F 54% 30.73 in - Calm Calm - - Snow Snow
8:00 AM -23.8 °F - -29.2 °F 76% 30.04 in 3.1 mi Variable 2.2 mph - N/A   Smoke
8:30 AM -22.0 °F - -27.4 °F 76% 30.04 in 3.7 mi Variable 2.2 mph - N/A   Scattered Clouds
9:00 AM -22.0 °F -35.3 °F -29.2 °F 69% 30.04 in 3.1 mi SSE 4.5 mph - N/A   Smoke
9:30 AM -22.0 °F - -27.4 °F 76% 30.04 in 2.5 mi Variable 2.2 mph - N/A   Scattered Clouds
10:00 AM -23.8 °F - -31.0 °F 69% 30.04 in 1.2 mi Variable 2.2 mph - N/A   Scattered Clouds
10:30 AM -22.0 °F - -29.2 °F 69% 30.01 in 1.2 mi Variable 2.2 mph - N/A   Mist
11:00 AM -9 °F - -16 °F 57% 30.63 in 0 mi Calm Calm - -   Smoke
11:00 AM -20.2 °F - -25.6 °F 76% 30.01 in 0.9 mi Variable 2.2 mph - N/A   Mist
11:30 AM -16.6 °F - -22.0 °F 76% 30.01 in 0.9 mi Variable 2.2 mph - N/A   Mist
12:00 PM -14.8 °F -26.9 °F -20.2 °F 77% 30.01 in 0.9 mi South 4.5 mph - N/A   Mist
12:30 PM -9.4 °F - -14.8 °F 77% 29.98 in 1.2 mi Variable 2.2 mph - N/A   Mist
1:00 PM -13.0 °F - -18.4 °F 77% 29.98 in 1.2 mi Variable 2.2 mph - N/A   Mist
1:30 PM -11.2 °F - -14.8 °F 84% 29.95 in 0.9 mi Calm Calm - N/A   Mist
2:00 PM -4 °F - -14 °F 45% 30.49 in 0 mi SSW 2.2 mph - -   Smoke
2:00 PM -9.4 °F - -16.6 °F 71% 29.95 in 0.9 mi Variable 2.2 mph - N/A   Mist
2:30 PM -7.6 °F - -13.0 °F 77% 29.92 in 0.9 mi Calm Calm - N/A   Mist
3:00 PM -9.4 °F - -14.8 °F 77% 29.92 in 1.9 mi Variable 2.2 mph - N/A   Mist
3:30 PM -9.4 °F -20.6 °F -18.4 °F 65% 29.92 in 2.5 mi South 4.5 mph - N/A   Smoke
4:00 PM -11.2 °F -22.7 °F -18.4 °F 70% 29.92 in 2.5 mi South 4.5 mph - N/A   Smoke
4:30 PM -13.0 °F -24.8 °F -20.2 °F 70% 29.89 in 2.5 mi South 4.5 mph - N/A   Smoke
5:00 PM -7 °F - -15 °F 52% 30.48 in 0 mi SW 4.5 mph - -   Smoke
5:00 PM -14.8 °F - -22.0 °F 70% 29.89 in 3.1 mi Variable 2.2 mph - N/A   Smoke
5:30 PM -16.6 °F - -22.0 °F 76% 29.89 in 3.1 mi Variable 2.2 mph - N/A   Smoke
6:00 PM -18.4 °F -31.1 °F -23.8 °F 76% 29.89 in 3.1 mi South 4.5 mph - N/A   Smoke
6:30 PM -16.6 °F -32.7 °F -22.0 °F 76% 29.89 in 3.7 mi South 6.7 mph - N/A   Unknown
7:00 PM -14.8 °F - -20.2 °F 77% 29.86 in 3.7 mi Calm Calm - N/A   Unknown
7:30 PM -16.6 °F - -22.0 °F 76% 29.86 in 3.7 mi Calm Calm - N/A   Unknown
8:00 PM -9 °F - -16 °F 57% 30.48 in - ENE 2.2 mph - -   Smoke
8:00 PM -20.2 °F -33.2 °F -25.6 °F 76% 29.86 in 3.7 mi Variable 4.5 mph - N/A   Scattered Clouds
8:30 PM -18.4 °F - -23.8 °F 76% 29.86 in 3.7 mi Variable 2.2 mph - N/A   Scattered Clouds
9:00 PM -20.2 °F - -27.4 °F 69% 29.86 in 3.7 mi Variable 2.2 mph - N/A   Scattered Clouds
9:30 PM -22.0 °F - -27.4 °F 76% 29.86 in 3.7 mi Variable 2.2 mph - N/A   Scattered Clouds
10:00 PM -16.6 °F - -22.0 °F 76% 29.86 in 3.7 mi Calm Calm - N/A   Scattered Clouds
10:30 PM -23.8 °F - -29.2 °F 76% 29.86 in 3.7 mi Variable 2.2 mph - N/A   Scattered Clouds
11:00 PM -12 °F - -19 °F 56% 30.49 in - NNW 2.2 mph - -   Smoke
11:00 PM -23.8 °F - -29.2 °F 76% 29.83 in 3.7 mi Variable 2.2 mph - N/A   Unknown
11:30 PM -22.0 °F - -27.4 °F 76% 29.83 in 3.7 mi Variable 2.2 mph - N/A   Unknown